Date,TemperatureHighF,TemperatureAvgF,TemperatureLowF,DewpointHighF,DewpointAvgF,DewpointLowF,HumidityHigh,HumidityAvg,HumidityLow,PressureMaxIn,PressureMinIn,WindSpeedMaxMPH,WindSpeedAvgMPH,GustSpeedMaxMPH,PrecipitationSumIn
2013-1-1,57.9,51.1,45.1,44.1,35.7,22.0,75,58,30,30.44,30.29,4,1,7,0.00
2013-1-2,60.7,52.3,44.9,48.6,35.9,22.3,75,55,28,30.33,30.25,5,1,8,0.00
2013-1-3,63.2,52.8,43.7,49.1,35.4,20.1,69,53,28,30.39,30.25,5,0,9,0.00
2013-1-4,59.4,51.6,44.7,47.9,35.1,19.2,80,55,29,30.49,30.38,4,1,6,0.00
2013-1-5,59.2,51.1,43.0,50.5,39.8,26.0,87,66,46,30.51,30.40,5,1,8,0.00
2013-1-6,56.8,51.6,47.8,51.1,46.6,42.6,93,83,72,30.43,30.23,6,1,12,0.41
2013-1-7,61.9,51.8,44.1,50.5,45.5,38.8,94,80,45,30.31,30.19,5,1,10,0.01
2013-1-8,60.1,52.8,45.3,54.5,47.5,38.8,91,82,72,30.33,30.22,3,0,6,0.00
2013-1-9,60.1,53.7,49.0,55.2,49.7,42.8,96,86,73,30.35,30.23,7,1,11,0.00
2013-1-10,55.6,53.4,50.7,52.6,45.5,38.0,94,75,60,30.31,30.19,15,8,26,0.05
2013-1-11,53.3,48.3,40.9,39.7,33.3,27.5,78,57,42,30.42,30.28,11,2,19,0.02
2013-1-12,54.7,46.1,38.9,39.6,34.5,29.9,81,65,42,30.39,30.28,4,1,7,0.00
2013-1-13,54.2,47.1,41.2,37.3,32.0,27.1,66,56,38,30.38,30.27,6,1,10,0.00
2013-1-14,54.9,45.5,36.4,33.1,24.2,10.6,68,45,22,30.56,30.33,8,2,15,0.00
2013-1-15,55.7,47.5,39.2,40.8,26.3,9.4,72,45,26,30.67,30.53,7,2,12,0.00
2013-1-16,58.6,50.6,42.7,50.0,39.2,28.7,81,65,37,30.57,30.32,4,1,7,0.00
2013-1-17,69.8,56.8,46.4,48.6,37.9,29.7,82,52,26,30.37,30.26,2,0,5,0.00
2013-1-18,67.8,58.3,49.9,52.3,35.9,26.8,65,44,24,30.33,30.26,5,0,8,0.00
2013-1-19,67.9,60.1,52.0,51.4,31.9,25.9,61,35,22,30.38,30.27,4,0,8,0.00
2013-1-20,67.5,58.2,49.2,51.6,35.8,22.8,66,44,27,30.33,30.20,4,0,7,0.00
2013-1-21,72.3,59.0,47.1,49.9,30.2,19.0,65,35,17,30.30,30.19,5,1,10,0.00
2013-1-22,70.7,60.3,50.8,51.0,28.0,16.7,59,30,14,30.30,30.22,5,0,7,0.00
2013-1-23,72.6,63.9,56.7,50.1,38.4,26.6,70,40,25,30.33,30.20,6,1,12,0.00
2013-1-24,67.8,61.3,57.4,56.3,51.1,42.6,84,69,54,30.40,30.27,3,0,8,0.04
2013-1-25,63.2,60.1,57.9,61.1,57.8,54.3,97,92,83,30.32,30.13,3,0,7,0.78
2013-1-26,59.6,57.8,55.9,58.7,57.0,55.3,98,97,95,30.23,30.09,4,1,7,0.13
2013-1-27,56.7,54.5,52.0,55.3,50.1,46.2,98,85,73,30.28,30.21,7,4,12,0.02
2013-1-28,56.7,53.2,48.0,47.8,42.5,36.0,81,68,51,30.40,30.24,9,4,15,0.00
2013-1-29,59.9,51.9,46.5,50.5,44.5,40.1,82,76,66,30.46,30.38,5,2,9,0.00
2013-1-30,63.4,52.9,46.1,51.3,46.7,40.8,91,80,52,30.55,30.42,7,1,11,0.03
2013-1-31,62.9,54.9,47.8,54.0,48.0,43.0,86,78,62,30.45,30.30,4,1,8,0.00
2013-2-1,67.8,57.0,47.8,55.8,48.7,42.6,86,74,47,30.38,30.30,3,0,6,0.00
2013-2-2,66.0,58.1,51.6,55.1,50.7,45.3,85,77,51,30.39,30.30,4,0,7,0.00
2013-2-3,63.9,59.4,54.0,57.7,53.9,49.3,95,83,65,30.33,30.23,3,1,7,0.00
2013-2-4,56.4,53.2,49.1,54.1,51.6,48.0,97,94,90,30.32,30.21,3,1,7,0.00
2013-2-5,54.7,53.3,50.8,51.5,50.1,48.4,95,89,82,30.33,30.21,3,0,6,0.00
2013-2-6,60.4,55.3,50.6,52.6,49.3,47.5,89,80,73,30.32,30.22,5,1,8,0.00
2013-2-7,59.4,54.3,50.6,53.8,49.3,45.4,90,83,72,30.35,30.24,5,1,9,0.00
2013-2-8,56.3,51.6,45.1,48.8,44.6,41.1,89,77,69,30.25,30.13,10,5,18,0.18
2013-2-9,57.6,49.7,42.0,47.6,43.1,39.8,92,79,61,30.33,30.16,4,1,9,0.14
2013-2-10,57.4,50.4,45.3,44.7,41.8,39.7,81,73,57,30.33,30.25,4,1,7,0.00
2013-2-11,57.1,50.8,44.2,48.4,44.0,39.5,85,78,70,30.46,30.27,6,1,10,0.00
2013-2-12,58.3,50.7,42.7,50.2,43.8,35.9,88,78,57,30.57,30.45,7,1,11,0.00
2013-2-13,58.9,51.3,43.1,53.4,46.2,39.3,94,83,61,30.48,30.36,4,1,7,0.00
2013-2-14,60.5,53.0,46.6,54.5,49.8,44.8,95,89,79,30.44,30.27,5,1,8,0.00
2013-2-15,72.5,60.7,50.2,50.4,39.1,20.9,87,49,19,30.37,30.31,4,0,7,0.00
2013-2-16,71.6,62.4,55.9,53.5,34.8,20.9,72,37,18,30.34,30.18,4,1,9,0.00
2013-2-17,59.1,54.9,48.7,53.2,47.7,36.6,83,77,49,30.25,30.16,8,2,14,0.00
2013-2-18,59.6,54.3,51.9,50.6,47.1,42.8,83,77,69,30.28,30.19,4,2,9,0.00
2013-2-19,54.9,52.1,47.7,48.1,44.6,41.8,93,76,64,30.22,29.96,14,4,22,0.32
2013-2-20,56.6,50.9,46.1,47.0,40.5,36.1,93,68,54,30.23,29.95,16,7,26,0.01
2013-2-21,58.8,51.1,45.3,47.9,43.0,37.6,83,74,65,30.32,30.19,5,1,11,0.00
2013-2-22,58.9,51.2,43.3,51.9,45.7,40.0,89,82,72,30.43,30.31,5,1,8,0.00
2013-2-23,59.1,52.7,44.4,52.5,46.5,37.3,87,79,71,30.38,30.16,3,1,6,0.00
2013-2-24,61.2,52.8,45.9,47.7,43.6,37.3,87,72,44,30.41,30.19,9,1,10,0.00
2013-2-25,60.9,52.7,43.1,50.7,39.6,23.0,82,62,32,30.43,30.30,6,1,9,0.00
2013-2-26,59.4,52.2,44.6,51.9,41.4,29.2,82,67,52,30.32,30.20,7,1,12,0.00
2013-2-27,65.5,56.3,48.3,53.7,39.3,22.5,77,54,33,30.47,30.31,6,1,10,0.00
2013-2-28,67.7,58.0,46.9,54.4,36.9,23.1,73,46,26,30.51,30.43,5,1,9,0.00
2013-3-1,74.0,63.8,53.8,50.5,34.7,24.3,62,35,18,30.49,30.34,4,1,10,0.00
2013-3-2,74.3,63.8,55.9,51.1,36.0,28.5,56,36,21,30.40,30.29,5,1,9,0.00
2013-3-3,64.7,57.6,52.5,56.3,48.9,34.3,90,74,43,30.31,30.22,5,1,8,0.00
2013-3-4,62.2,57.2,54.6,54.6,52.2,50.5,88,83,74,30.31,30.24,4,1,8,0.00
2013-3-5,58.6,55.7,54.1,52.5,50.9,49.0,87,84,78,30.34,30.27,4,1,7,0.00
2013-3-6,58.4,55.0,52.3,49.4,47.2,45.3,84,75,66,30.38,30.24,6,3,11,0.00
2013-3-7,60.2,55.1,51.9,54.2,50.5,46.3,90,84,79,30.24,30.08,4,1,8,0.28
2013-3-8,57.2,52.9,49.9,53.0,46.9,42.6,97,81,63,30.28,30.00,13,4,23,1.75
2013-3-9,59.4,54.1,49.7,49.0,46.6,44.1,84,76,66,30.42,30.27,11,4,19,0.01
2013-3-10,63.9,54.3,46.4,54.6,47.9,42.7,88,79,61,30.47,30.36,6,1,11,0.00
2013-3-11,61.4,54.6,48.1,56.2,49.2,40.9,95,82,70,30.39,30.26,6,1,9,0.00
2013-3-12,59.9,52.9,46.9,55.7,51.0,45.8,97,93,84,30.31,30.22,5,1,10,0.00
2013-3-13,56.9,53.3,50.5,54.9,52.3,49.7,98,96,91,30.33,30.25,5,1,9,0.01
2013-3-14,56.4,53.3,50.0,54.7,52.2,49.5,98,96,92,30.31,30.24,5,1,10,0.00
2013-3-15,58.7,53.8,51.9,56.5,52.9,51.2,99,97,91,30.27,30.17,4,1,8,0.00
2013-3-16,60.1,54.2,51.6,54.4,51.6,49.7,97,91,79,30.20,30.12,6,1,7,0.00
2013-3-29,60.4,58.1,56.2,56.3,54.9,53.5,92,89,85,30.33,30.26,8,4,8,0.00
2013-3-30,62.3,58.8,54.1,57.1,55.1,51.5,92,88,82,30.34,30.27,10,5,10,0.00
2013-3-31,67.4,59.8,54.0,59.0,55.3,51.9,94,85,74,30.35,30.28,9,4,9,0.00
2013-4-1,61.7,58.6,55.2,56.2,54.2,52.1,92,85,73,30.39,30.29,13,9,13,0.00
2013-4-2,62.2,58.9,55.2,55.7,54.5,53.2,94,86,76,30.31,30.21,9,5,9,0.00
2013-4-3,60.5,57.5,54.4,56.0,54.2,52.1,92,89,84,30.30,30.22,10,3,10,0.00
2013-4-4,62.6,59.6,55.5,57.6,56.1,53.8,95,88,82,30.33,30.23,8,3,11,0.00
2013-4-5,63.2,59.4,57.3,58.3,56.3,54.4,95,89,79,30.32,30.23,5,2,9,0.00
2013-4-6,64.5,60.2,57.7,58.3,55.9,53.8,92,86,79,30.29,30.19,5,2,7,0.00
2013-4-7,66.3,60.4,57.6,58.5,55.7,53.5,92,85,75,30.20,30.03,5,2,9,0.00
2013-4-8,61.9,57.7,54.8,55.9,51.6,47.1,94,80,65,30.05,29.94,12,4,19,0.00
2013-4-9,66.7,58.1,52.0,55.9,51.1,47.6,86,78,63,30.22,30.04,5,1,9,0.00
2013-4-10,69.2,59.1,49.6,57.2,48.0,39.3,80,67,44,30.31,30.20,3,1,6,0.00
2013-4-11,62.9,58.5,55.2,56.5,50.2,36.3,88,75,43,30.23,30.02,11,4,17,0.00
2013-4-12,62.4,58.9,55.8,56.0,53.7,51.1,90,83,76,30.11,30.00,6,2,10,0.00
2013-4-13,59.4,57.3,55.1,55.8,53.5,50.0,90,87,83,30.13,30.06,6,2,11,0.00
2013-4-14,57.2,55.3,54.3,53.8,51.3,49.5,92,86,80,30.12,30.05,11,2,11,0.00
2013-4-15,63.1,57.0,54.3,55.3,52.8,47.6,95,86,74,30.15,30.06,7,2,13,0.06
2013-4-16,60.9,55.4,52.2,49.2,46.2,42.5,78,71,61,30.21,30.11,8,3,14,0.00
2013-4-17,65.3,57.2,49.2,53.8,46.1,29.3,87,68,36,30.31,30.21,9,2,14,0.00
2013-4-18,74.9,62.3,49.3,54.5,39.1,20.7,69,44,14,30.38,30.30,5,2,11,0.00
2013-4-19,69.5,60.4,50.9,57.2,45.3,27.5,76,58,29,30.35,30.19,5,1,11,0.00
2013-4-20,68.0,60.7,51.7,60.6,53.9,44.2,92,79,53,30.22,30.10,3,1,6,0.00
2013-4-21,63.2,59.0,55.4,57.9,56.0,54.1,97,90,81,30.23,30.14,6,2,13,0.00
2013-4-22,63.4,58.3,55.8,56.4,53.6,51.9,91,85,76,30.22,30.13,5,2,10,0.00
2013-4-23,65.7,60.0,57.1,55.7,53.0,50.8,85,78,69,30.19,30.09,4,1,7,0.00
2013-4-24,61.6,59.3,58.3,55.3,53.9,52.7,87,82,76,30.18,30.10,4,1,8,0.00
2013-4-25,66.2,61.5,55.9,58.3,55.0,51.9,89,79,71,30.32,30.17,5,2,9,0.00
2013-4-26,66.3,60.7,54.7,59.6,56.3,52.4,92,85,75,30.37,30.30,6,2,10,0.00
2013-4-27,61.8,59.4,58.3,57.4,56.1,54.9,93,89,84,30.36,30.23,8,1,8,0.00
2013-4-28,62.0,58.6,56.9,58.0,56.2,55.2,95,92,86,30.25,30.09,4,1,8,0.00
2013-4-29,64.6,59.9,57.0,57.9,55.7,53.8,93,86,76,30.12,30.01,5,2,10,0.00
2013-4-30,63.6,59.4,57.8,57.4,54.8,52.3,89,85,80,30.11,30.03,8,4,13,0.00
2013-5-1,65.1,61.6,59.5,59.0,56.6,54.2,88,84,77,30.30,30.10,5,2,8,0.00
2013-5-2,70.6,63.2,58.0,62.3,57.8,54.3,89,83,71,30.32,30.18,7,2,11,0.00
2013-5-3,75.8,63.8,54.1,63.3,55.9,36.9,94,78,25,30.21,30.00,6,2,10,0.00
2013-5-4,64.7,60.9,57.8,58.5,56.6,54.5,95,86,76,30.07,29.98,10,5,18,0.00
2013-5-5,63.4,60.5,58.6,57.0,55.9,54.2,90,85,77,30.17,30.04,6,3,12,0.02
2013-5-6,64.2,60.9,58.0,61.2,58.1,55.2,96,91,85,30.22,30.13,14,4,16,0.28
2013-5-7,68.2,62.4,57.7,60.1,57.3,55.4,93,84,71,30.28,30.20,4,2,11,0.44
2013-5-8,65.5,61.2,57.6,59.5,57.0,55.3,95,86,74,30.32,30.26,7,2,11,0.08
2013-5-9,65.8,61.2,57.6,58.0,56.1,54.4,91,83,73,30.31,30.26,4,2,8,0.00
2013-5-10,67.5,62.8,59.8,61.2,57.8,55.6,91,84,79,30.30,30.24,6,2,10,0.00
2013-5-11,67.0,62.8,60.8,62.3,59.9,58.4,95,90,84,30.29,30.20,5,2,9,0.00
2013-5-12,65.3,62.4,60.4,62.5,60.7,59.5,97,94,89,30.25,30.11,6,2,10,0.00
2013-5-13,75.9,67.2,60.0,66.0,62.2,58.2,95,84,63,30.17,30.07,5,1,9,0.00
2013-5-14,67.2,63.3,60.8,62.3,59.7,56.9,94,88,81,30.22,30.10,5,1,9,0.00
2013-5-15,66.3,61.7,59.3,58.7,56.3,54.4,88,82,75,30.25,30.17,6,3,10,0.00
2013-5-16,65.9,62.2,59.9,57.7,55.7,54.4,85,79,73,30.19,30.12,6,2,11,0.00
2013-5-17,66.7,62.9,60.3,59.6,57.1,54.2,88,82,77,30.22,30.11,6,2,10,0.00
2013-5-18,67.3,63.1,59.0,60.3,57.5,54.8,89,82,74,30.25,30.19,6,3,10,0.00
2013-5-19,69.3,63.9,59.2,60.9,57.9,55.5,90,81,73,30.20,30.10,4,1,8,0.01
2013-5-20,68.2,63.6,59.9,61.3,58.9,56.6,91,85,77,30.15,30.09,5,2,9,0.00
2013-5-21,68.0,63.6,60.9,62.2,59.5,57.9,92,87,78,30.14,30.04,4,2,7,0.00
2013-5-22,65.7,62.7,61.1,59.1,57.2,55.4,88,82,75,30.06,30.00,7,4,13,0.00
2013-5-23,66.8,61.4,57.8,58.7,55.0,52.1,86,79,71,30.15,30.03,9,4,16,0.00
2013-5-24,65.2,61.3,58.0,55.9,53.8,51.6,83,76,68,30.22,30.12,4,2,9,0.00
2013-5-25,67.0,61.4,58.4,57.9,53.9,50.5,84,76,66,30.25,30.18,5,2,9,0.00
2013-5-26,65.3,61.7,57.5,57.2,54.8,53.0,86,78,72,30.27,30.20,5,2,10,0.00
2013-5-27,67.8,61.9,57.4,59.7,56.6,53.3,89,83,74,30.22,30.09,5,2,9,0.00
2013-5-28,69.3,63.7,60.2,62.0,58.3,55.3,91,83,73,30.10,29.98,5,2,10,0.00
2013-5-29,70.5,64.4,60.7,62.9,59.7,57.3,90,85,76,30.02,29.95,5,2,10,0.00
2013-5-30,66.8,63.9,61.3,60.8,59.3,57.5,88,85,80,30.10,29.96,6,4,12,0.00
2013-5-31,68.3,63.3,60.7,61.3,58.7,57.2,90,85,76,30.10,30.04,5,2,8,0.00
2013-6-1,66.4,63.2,61.3,61.7,59.6,57.9,90,88,84,30.07,29.98,4,1,8,0.00
2013-6-2,65.8,62.6,61.1,60.9,59.3,58.1,93,89,81,30.05,29.97,7,3,13,0.00
2013-6-3,66.7,63.5,61.7,60.2,58.5,56.8,89,84,77,30.10,30.00,7,4,13,0.00
2013-6-4,67.3,63.5,60.9,60.0,58.0,56.4,88,82,72,30.17,30.09,5,3,10,0.00
2013-6-5,67.3,64.0,62.3,60.9,59.4,58.4,89,85,78,30.20,30.12,8,4,14,0.00
2013-6-6,64.4,62.4,61.2,60.4,58.9,57.4,91,88,85,30.16,30.09,7,3,12,0.00
2013-6-7,64.5,61.5,59.6,60.7,58.4,56.7,92,89,85,30.11,30.01,5,2,9,0.00
2013-6-8,64.9,61.4,59.6,59.3,57.9,57.1,92,88,81,30.09,30.00,5,2,10,0.00
2013-6-9,68.0,63.7,59.9,61.0,58.0,55.6,89,82,73,30.14,30.08,4,2,7,0.00
2013-6-10,68.3,63.8,58.8,59.9,57.3,54.8,89,80,72,30.16,30.10,5,2,9,0.00
2013-6-11,67.1,63.4,60.1,62.8,60.0,57.9,93,89,86,30.15,30.09,10,2,10,0.00
2013-6-12,68.7,63.5,61.3,61.5,59.5,57.9,94,87,76,30.23,30.12,5,2,10,0.00
2013-6-13,67.8,64.3,62.2,60.6,58.9,57.6,87,83,76,30.22,30.11,4,2,8,0.00
2013-6-14,66.7,62.7,60.4,59.5,57.8,55.8,90,84,75,30.13,30.07,5,3,10,0.00
2013-6-15,68.7,62.9,59.3,58.8,56.5,54.5,87,80,68,30.18,30.10,4,2,8,0.00
2013-6-16,67.5,63.6,60.5,60.3,58.2,55.8,90,83,76,30.24,30.16,5,2,10,0.00
2013-6-17,67.8,63.5,60.6,61.1,59.2,57.8,92,86,77,30.18,30.10,4,1,8,0.00
2013-6-18,69.3,63.6,60.6,61.8,59.3,57.8,92,86,75,30.13,30.06,4,1,8,0.00
2013-6-19,69.8,64.5,60.3,62.5,58.9,55.6,90,82,74,30.07,30.01,5,2,9,0.00
2013-6-20,71.8,65.6,61.1,63.6,60.5,58.0,92,84,73,30.07,29.99,4,1,7,0.00
2013-6-21,69.6,65.0,61.6,62.1,60.3,58.3,92,85,76,30.11,30.02,6,2,12,0.00
2013-6-22,69.4,64.2,61.0,61.5,59.2,57.3,91,84,75,30.12,30.04,6,3,12,0.00
2013-6-23,68.8,63.5,60.0,60.3,57.9,56.0,89,82,73,30.09,30.01,7,3,12,0.00
2013-6-24,69.3,64.7,62.3,62.6,59.4,56.7,87,83,77,30.14,30.04,7,3,13,0.00
2013-6-25,70.5,66.6,63.4,64.7,62.4,59.1,92,86,81,30.19,30.10,7,3,12,0.00
2013-6-26,68.5,65.8,64.4,65.0,63.0,62.0,94,91,85,30.20,30.11,5,2,8,0.00
2013-6-27,72.8,66.4,63.7,67.5,63.9,61.9,96,92,82,30.23,30.17,3,1,6,0.00
2013-6-28,70.5,66.8,63.9,66.4,64.6,62.5,97,93,86,30.20,30.07,4,1,7,0.00
2013-6-29,70.1,67.6,66.0,66.8,65.4,64.4,96,93,88,30.08,29.94,5,1,7,0.00
2013-6-30,71.2,67.6,65.2,67.7,65.1,63.6,96,92,85,30.01,29.90,9,2,15,0.00
2013-7-1,74.0,67.9,64.0,69.1,65.2,62.5,95,91,84,30.08,30.01,4,1,6,0.00
2013-7-2,69.9,67.2,66.2,66.7,64.8,63.8,95,92,85,30.20,30.07,6,2,11,0.00
2013-7-3,68.7,66.6,65.0,66.2,64.7,62.8,96,94,91,30.13,30.01,5,2,8,0.00
2013-7-4,72.6,66.4,64.1,66.2,63.0,60.8,94,89,78,30.04,29.99,5,1,9,0.00
2013-7-5,71.5,66.5,64.1,65.3,62.7,61.1,92,88,79,30.06,29.98,4,1,7,0.00
2013-7-6,71.7,66.7,65.2,66.3,63.2,61.9,90,88,82,30.03,29.97,3,1,7,0.00
2013-7-7,70.2,66.8,65.1,65.5,63.7,62.3,93,90,84,30.06,29.97,5,2,10,0.00
2013-7-8,72.0,67.9,65.0,67.3,65.1,63.5,95,91,83,30.11,30.04,6,2,10,0.00
2013-7-9,73.8,69.4,67.3,68.1,66.1,65.1,94,89,81,30.22,30.08,7,2,12,0.00
2013-7-10,70.2,67.8,66.4,67.0,65.3,64.0,94,92,89,30.18,30.09,5,1,9,0.00
2013-7-11,72.7,67.8,65.7,68.2,65.1,63.5,95,91,83,30.17,30.09,4,1,7,0.01
2013-7-12,72.3,68.2,64.4,67.0,64.8,62.3,94,89,82,30.13,30.06,4,1,6,0.00
2013-7-13,69.8,67.6,65.3,66.2,64.2,62.2,92,89,83,30.15,30.08,5,2,8,0.00
2013-7-14,74.3,68.7,65.4,67.3,64.6,62.7,92,87,77,30.12,30.03,3,1,7,0.00
2013-7-15,73.0,68.3,63.8,67.5,64.8,61.7,94,89,82,30.07,30.01,4,1,8,0.00
2013-7-16,71.3,67.7,63.4,65.7,63.8,60.6,91,87,80,30.18,30.04,6,2,10,0.00
2013-7-17,73.1,67.4,62.0,67.4,63.9,60.4,96,89,78,30.21,30.15,7,2,11,0.01
2013-7-18,69.1,66.9,65.7,64.2,63.1,61.9,92,88,81,30.18,30.07,5,2,10,0.00
2013-7-19,69.3,65.5,62.9,64.6,62.1,59.8,92,89,83,30.11,30.05,5,1,9,0.00
2013-7-20,68.5,64.6,62.2,63.7,61.3,59.5,92,89,84,30.09,30.00,4,1,8,0.00
2013-7-21,68.6,65.1,63.5,63.8,61.9,61.0,93,89,84,30.12,29.99,7,1,12,0.00
2013-7-22,73.0,67.7,64.8,66.7,63.6,61.9,92,87,77,30.18,30.11,3,1,6,0.00
2013-7-23,71.0,67.9,65.6,66.2,64.1,62.6,91,88,82,30.23,30.13,6,2,10,0.00
2013-7-24,68.7,65.9,64.1,64.2,63.1,62.0,93,91,85,30.17,30.11,5,2,9,0.00
2013-7-25,68.3,64.9,62.4,63.3,62.0,60.7,95,90,83,30.22,30.12,4,1,8,0.00
2013-7-26,68.8,66.0,64.5,65.3,63.7,62.4,95,92,87,30.27,30.18,5,2,8,0.00
2013-7-27,67.0,64.5,61.9,64.6,62.3,59.5,95,92,86,30.22,30.10,4,1,7,0.00
2013-7-28,69.1,63.9,61.1,63.0,60.2,58.4,94,88,79,30.14,30.09,2,1,6,0.00
2013-7-29,68.0,64.2,61.4,60.4,59.0,58.1,90,84,76,30.24,30.11,5,2,9,0.00
2013-7-30,68.5,64.9,60.9,61.9,60.0,57.6,90,84,77,30.32,30.24,5,2,9,0.00
2013-7-31,67.0,64.0,62.4,61.6,59.6,57.5,90,86,77,30.30,30.21,6,2,9,0.00
2013-8-1,69.5,65.1,62.2,62.9,60.1,58.7,89,84,73,30.22,30.12,5,2,8,0.00
2013-8-2,69.9,65.6,63.0,62.0,60.1,58.6,87,83,75,30.17,30.10,4,2,9,0.00
2013-8-3,70.9,65.3,62.2,62.6,59.9,58.6,90,83,75,30.20,30.14,4,1,7,0.00
2013-8-4,69.2,64.8,62.4,63.0,60.8,59.4,91,87,79,30.21,30.13,6,2,9,0.00
2013-8-5,68.4,64.7,62.9,62.3,60.7,59.3,90,87,79,30.20,30.14,5,2,8,0.00
2013-8-6,68.0,64.2,62.0,61.4,60.0,58.9,91,86,79,30.24,30.16,5,2,8,0.00
2013-8-7,68.6,65.4,63.6,62.2,60.7,59.3,90,85,78,30.28,30.18,5,2,10,0.00
2013-8-8,68.4,65.0,63.4,62.7,61.2,60.1,91,88,81,30.20,30.11,5,2,8,0.00
2013-8-9,67.2,64.5,61.4,61.6,59.7,57.5,89,85,78,30.17,30.10,5,2,9,0.00
2013-8-10,68.6,64.1,60.7,61.2,58.8,57.1,89,83,75,30.23,30.17,4,1,8,0.00
2013-8-11,67.9,64.0,61.8,61.9,59.8,58.5,90,86,79,30.19,30.11,6,1,7,0.00
2013-8-12,67.5,64.1,62.1,62.5,60.2,58.9,91,87,83,30.17,30.11,4,1,8,0.00
2013-8-13,67.5,63.7,61.7,63.0,60.5,59.0,92,89,84,30.17,30.10,4,1,7,0.00
2013-8-14,66.7,63.8,61.7,63.2,61.2,59.7,93,91,87,30.13,30.06,3,0,6,0.00
2013-8-15,68.7,65.0,62.9,64.0,62.2,60.8,94,91,84,30.14,30.08,2,0,6,0.00
2013-8-16,70.8,66.4,62.2,66.0,63.4,60.2,95,90,83,30.16,30.10,3,1,6,0.00
2013-8-17,69.3,66.2,63.5,65.0,63.4,61.1,94,91,84,30.15,30.03,6,2,10,0.00
2013-8-18,69.8,65.3,62.6,64.7,62.2,60.7,95,90,82,30.10,30.03,6,2,10,0.00
2013-8-19,70.0,65.3,63.5,64.4,61.9,60.7,92,89,81,30.15,30.07,3,1,7,0.00
2013-8-20,70.2,66.4,63.7,65.3,63.1,61.1,93,89,83,30.12,30.04,6,2,10,0.00
2013-8-21,71.6,67.1,64.4,66.3,63.9,62.3,94,90,82,30.11,30.04,7,3,13,0.00
2013-8-22,73.2,67.5,62.9,66.5,63.8,61.1,95,88,77,30.11,30.01,7,2,10,0.00
2013-8-23,73.0,66.7,63.0,67.4,63.8,61.1,95,90,80,30.06,29.95,7,1,9,0.00
2013-8-24,70.8,66.0,63.5,64.7,62.6,61.1,93,89,80,30.08,29.99,5,1,9,0.00
2013-8-25,68.8,65.6,62.9,64.4,62.8,60.5,95,91,85,30.11,30.03,5,2,9,0.00
2013-8-26,71.8,68.0,65.2,66.8,64.8,62.6,93,90,83,30.11,30.01,6,2,10,0.00
2013-8-27,74.3,68.9,66.0,68.1,65.7,64.2,95,90,79,30.04,29.97,5,1,7,0.00
2013-8-28,73.8,69.3,65.6,69.0,66.0,63.8,94,90,82,30.08,29.96,5,2,8,0.00
2013-8-29,76.1,70.6,66.2,69.2,64.9,55.7,92,83,50,30.12,30.05,6,1,10,0.00
2013-8-30,83.7,75.3,68.7,72.5,67.6,63.3,86,77,63,30.17,30.08,3,0,5,0.00
2013-8-31,80.1,74.2,71.0,72.3,70.0,68.2,93,87,74,30.15,30.07,2,0,5,0.00
2013-9-1,75.8,72.0,69.9,71.3,69.1,67.5,95,91,85,30.12,30.05,6,2,10,0.00
2013-9-2,72.0,68.7,66.5,69.5,67.3,65.6,98,95,90,30.11,30.01,6,2,10,0.00
2013-9-3,75.7,70.9,67.6,71.4,68.7,66.4,97,93,85,30.10,30.01,4,1,6,0.00
2013-9-4,76.5,71.9,68.8,71.8,69.1,67.3,96,91,81,30.09,30.01,6,1,10,0.00
2013-9-5,76.4,71.9,68.9,71.0,68.7,66.3,95,90,82,30.08,30.01,5,1,7,0.00
2013-9-6,77.9,72.0,69.0,71.6,69.1,67.3,95,91,80,30.06,29.97,5,1,8,0.00
2013-9-7,77.7,71.2,67.8,72.3,68.8,66.3,96,92,81,30.06,29.98,3,1,6,0.00
2013-9-8,73.1,68.5,65.6,69.2,66.2,63.8,96,93,85,30.05,29.95,10,2,10,0.00
2013-9-9,70.9,67.3,64.8,66.5,64.1,62.3,94,90,84,30.02,29.95,4,1,7,0.00
2013-9-10,72.2,67.7,64.4,64.7,62.6,60.9,92,84,75,30.13,30.00,4,1,7,0.00
2013-9-11,71.3,67.7,63.4,63.8,62.3,60.6,91,83,76,30.19,30.11,7,2,11,0.00
2013-9-12,70.5,66.6,62.8,65.7,63.4,60.4,93,90,83,30.12,30.02,6,2,10,0.00
2013-9-13,70.6,67.1,64.2,66.2,64.4,62.4,95,91,84,30.03,29.87,5,1,8,0.00
2013-9-14,70.3,66.7,64.3,66.6,64.3,62.6,95,92,87,29.92,29.84,4,1,7,0.00
2013-9-15,72.0,67.6,64.6,68.6,65.6,63.1,97,93,87,29.96,29.89,5,1,8,0.00
2013-9-16,72.9,67.5,64.7,69.5,65.5,63.4,97,94,87,30.01,29.95,5,1,9,0.00
2013-9-17,72.2,67.7,65.4,65.5,63.5,61.1,95,87,76,30.02,29.93,3,1,8,0.00
2013-9-18,72.0,66.0,62.0,63.7,60.6,57.8,90,83,74,30.01,29.94,6,2,11,0.00
2013-9-19,72.4,66.8,62.3,64.9,62.0,59.3,92,85,75,30.03,29.96,3,1,7,0.00
2013-9-20,70.8,66.1,64.5,62.6,60.9,59.0,88,83,73,30.09,30.01,4,1,10,0.00
2013-9-21,71.0,67.0,64.5,63.6,60.6,57.8,90,80,70,30.10,30.01,7,2,11,0.00
2013-9-22,70.9,66.6,61.9,63.1,60.7,56.9,92,82,73,30.06,29.98,6,2,10,0.00
2013-9-23,75.5,66.5,58.9,66.5,60.8,55.4,91,82,73,30.09,29.98,5,1,7,0.00
2013-9-24,74.6,68.0,59.5,69.0,62.1,54.3,91,82,56,30.13,30.04,4,1,7,0.00
2013-9-25,68.5,65.3,62.4,63.7,60.9,57.5,95,86,78,30.06,29.93,10,4,16,0.00
2013-9-26,69.8,64.5,61.1,62.2,57.8,54.5,83,79,71,30.08,29.93,8,4,15,0.00
2013-9-27,72.5,64.6,57.1,63.4,57.3,51.6,83,77,69,30.18,30.07,7,1,10,0.00
2013-9-28,74.3,66.3,57.3,65.3,54.0,38.6,80,65,35,30.24,30.15,6,1,9,0.00
2013-9-29,74.2,65.8,58.2,65.9,57.6,42.3,93,76,51,30.25,30.17,5,1,8,0.00
2013-9-30,71.7,64.0,55.7,65.7,59.9,54.1,96,87,71,30.19,30.06,4,1,6,0.01
2013-10-1,69.0,64.5,60.7,63.8,60.8,58.4,94,88,81,30.14,30.07,6,2,11,0.00
2013-10-2,70.5,65.0,62.5,63.0,59.3,57.3,86,82,75,30.17,30.09,4,2,8,0.00
2013-10-3,69.7,65.0,62.0,63.0,59.2,56.5,86,81,76,30.14,30.04,3,1,8,0.00
2013-10-4,70.3,65.3,59.8,63.2,59.7,55.6,92,82,76,30.21,30.07,5,1,8,0.00
2013-10-5,89.8,70.2,57.1,62.3,46.2,21.2,94,47,9,30.28,30.20,7,1,12,0.00
2013-10-6,78.5,69.3,60.1,64.0,47.5,26.8,73,48,22,30.25,30.14,3,1,7,0.00
2013-10-7,72.0,66.1,60.1,65.3,57.7,38.8,92,75,46,30.17,30.10,5,1,8,0.00
2013-10-8,68.3,63.5,60.3,61.4,58.1,54.3,94,83,68,30.14,30.04,6,2,11,0.00
2013-10-9,64.5,60.8,55.8,56.0,53.7,49.8,89,78,68,30.04,29.94,11,6,18,0.29
2013-10-10,67.7,60.7,54.2,56.3,53.0,49.8,89,76,64,30.22,30.01,7,1,12,0.07
2013-10-11,68.0,60.7,52.2,60.2,55.1,48.4,89,82,73,30.24,30.13,7,2,14,0.00
2013-10-12,67.1,63.1,59.8,60.7,58.5,56.6,90,85,78,30.18,30.10,6,1,9,0.00
2013-10-13,66.2,61.8,56.3,58.6,55.5,52.5,88,80,71,30.22,30.13,5,1,12,0.00
2013-10-14,69.0,61.1,53.5,63.5,57.6,51.1,94,88,81,30.22,30.09,7,2,12,0.00
2013-10-15,71.2,63.0,54.7,65.8,58.9,50.8,96,87,70,30.16,30.08,4,1,7,0.01
2013-10-16,77.3,68.3,58.2,63.6,44.2,33.9,80,44,25,30.25,30.15,5,0,10,0.00
2013-10-17,71.9,64.9,58.4,63.5,48.4,33.6,87,57,29,30.22,30.12,3,0,5,0.00
2013-10-18,69.8,62.8,54.9,64.4,57.4,47.0,93,83,66,30.20,30.12,5,1,9,0.00
2013-10-19,67.3,60.1,51.4,62.6,57.6,49.8,95,92,76,30.21,30.16,6,1,9,0.01
2013-10-20,65.2,59.3,54.3,60.9,57.2,53.3,97,93,85,30.19,30.11,4,1,8,0.01
2013-10-21,66.0,59.9,54.7,61.0,57.2,53.3,96,91,82,30.19,30.11,5,1,9,0.00
2013-10-22,64.7,61.3,58.4,59.8,57.9,56.1,93,89,82,30.20,30.12,5,1,9,0.00
2013-10-23,65.4,62.3,60.8,59.7,57.9,56.6,90,86,81,30.17,30.11,5,1,9,0.00
2013-10-24,65.8,62.4,60.9,58.6,57.2,56.0,86,83,76,30.25,30.15,4,2,7,0.00
2013-10-25,66.7,62.8,60.0,60.2,58.1,56.6,93,85,78,30.31,30.19,6,2,10,0.00
2013-10-26,62.6,61.0,59.5,60.2,59.0,57.4,95,93,91,30.28,30.17,5,1,9,0.00
2013-10-27,64.2,60.0,57.1,60.6,57.9,56.3,97,93,87,30.18,30.05,3,0,7,0.00
2013-10-28,65.4,60.9,58.1,57.9,56.3,54.6,96,85,74,30.14,30.06,7,3,12,0.00
2013-10-29,65.1,59.2,54.4,56.7,54.0,51.1,95,83,69,30.21,30.12,4,1,8,0.00
2013-10-30,64.8,58.2,52.0,57.3,53.4,49.4,92,84,74,30.27,30.19,5,1,9,0.00
2013-10-31,67.5,59.4,50.9,60.3,53.5,46.8,91,81,58,30.28,30.18,6,1,9,0.00
2013-11-1,73.2,62.1,52.5,58.5,51.9,45.2,89,71,43,30.28,30.12,5,1,9,0.00
2013-11-2,67.8,61.2,55.1,62.7,54.3,40.7,93,79,42,30.19,30.10,9,1,16,0.00
2013-11-3,65.3,61.2,57.8,57.4,55.7,51.9,93,82,72,30.14,30.03,5,2,9,0.00
2013-11-4,63.2,59.6,55.2,55.9,53.1,51.6,89,79,71,30.14,29.99,6,2,11,0.00
2013-11-5,66.0,58.3,51.9,60.0,53.0,36.8,92,83,50,30.32,30.13,5,1,9,0.00
2013-11-6,70.6,60.8,52.0,59.9,37.1,22.7,77,43,23,30.39,30.27,6,1,10,0.00
2013-11-7,73.8,64.3,55.2,51.1,35.6,20.2,60,36,18,30.30,30.18,4,1,9,0.00
2013-11-8,67.7,61.0,54.0,62.3,52.1,31.4,95,75,36,30.24,30.13,3,0,7,0.00
2013-11-9,64.9,57.1,49.2,57.1,53.3,48.1,97,87,74,30.28,30.20,4,1,6,0.00
2013-11-10,73.3,61.8,53.6,59.5,51.6,42.8,89,71,34,30.34,30.21,3,0,6,0.00
2013-11-11,68.3,59.6,52.5,60.9,52.1,38.4,95,77,54,30.31,30.23,4,1,8,0.00
2013-11-12,67.2,60.7,54.5,61.2,56.7,-91.1,94,87,78,30.36,30.24,4,0,7,0.01
2013-11-13,71.3,63.9,55.6,64.6,54.4,46.2,92,73,44,30.24,30.08,4,1,7,0.00
2013-11-14,73.6,66.1,58.0,61.3,52.4,41.4,94,64,39,30.12,29.97,5,1,10,0.00
2013-11-15,63.8,61.5,58.6,58.9,57.8,56.6,94,88,81,29.99,29.88,11,5,17,0.00
2013-11-16,65.5,60.3,57.9,56.9,52.9,49.8,89,77,60,30.15,29.97,5,2,9,0.00
2013-11-17,65.8,59.1,53.6,58.4,53.2,47.9,91,81,72,30.29,30.15,3,1,6,0.00
2013-11-18,64.3,59.3,53.4,58.1,55.6,51.4,93,88,78,30.36,30.26,5,1,8,0.00
2013-11-19,63.0,59.6,57.2,57.4,55.9,54.3,94,88,78,30.29,30.16,4,1,7,0.00
2013-11-20,66.8,61.2,58.2,59.6,56.6,54.3,94,85,74,30.19,30.09,4,1,8,0.00
2013-11-21,61.4,58.9,55.2,59.4,57.3,54.3,97,94,89,30.12,30.06,6,2,16,0.00
2013-11-22,65.3,56.3,53.2,58.2,52.8,47.7,98,88,64,30.14,30.02,2,0,7,0.00
2013-11-23,62.6,57.0,52.5,55.6,49.7,46.8,90,77,63,30.28,30.13,5,1,10,0.00
2013-11-24,63.3,56.3,49.5,53.3,48.8,44.2,83,76,63,30.38,30.27,5,1,9,0.00
2013-11-25,64.3,56.8,48.5,57.8,50.1,42.4,92,79,56,30.44,30.36,5,1,10,0.00
2013-11-26,68.0,58.3,51.3,59.8,52.0,45.3,91,80,47,30.39,30.23,4,1,9,0.00
2013-11-27,65.2,59.6,55.0,60.4,51.9,43.1,86,76,55,30.23,30.08,3,0,5,0.00
2013-11-28,64.7,58.6,52.6,59.3,53.0,42.5,91,82,62,30.26,30.09,3,0,7,0.00
2013-11-29,63.6,58.7,54.5,59.2,54.8,49.8,91,87,76,30.37,30.25,2,0,7,0.00
2013-11-30,64.7,59.0,53.4,60.0,55.0,51.1,92,87,72,30.38,30.27,4,1,8,0.00
2013-12-1,66.4,59.9,53.3,61.0,51.5,37.5,93,75,43,30.40,30.28,3,0,5,0.00
2013-12-2,68.4,61.0,53.4,54.8,41.8,30.9,73,50,33,30.31,30.11,3,0,6,0.00
2013-12-3,60.9,58.2,54.6,56.4,53.4,45.6,93,84,68,30.11,29.98,9,4,15,0.00
2013-12-4,59.9,56.4,52.3,53.7,44.2,39.0,82,64,52,30.18,30.02,9,3,15,0.00
2013-12-5,59.4,53.7,47.3,44.4,40.3,37.4,75,61,48,30.32,30.16,5,2,12,0.00
2013-12-6,57.7,52.1,46.8,43.4,40.2,37.5,71,64,53,30.40,30.32,8,2,14,0.00
2013-12-7,57.1,54.5,50.6,53.0,45.8,40.4,92,73,60,30.36,30.24,12,6,18,0.00
2013-12-8,56.6,51.9,45.4,42.8,40.2,37.5,75,64,56,30.41,30.31,7,2,13,0.00
2013-12-9,62.8,49.0,40.1,41.0,27.0,8.5,81,49,15,30.49,30.37,4,1,8,0.00
2013-12-10,61.1,51.4,42.5,44.6,30.1,12.4,72,45,26,30.45,30.28,4,1,7,0.00
2013-12-11,64.1,56.3,50.1,48.9,40.4,24.2,79,57,34,30.36,30.29,3,0,5,0.00
2013-12-12,64.3,55.0,48.4,53.6,47.4,37.2,91,76,38,30.42,30.35,3,0,6,0.00
2013-12-13,59.9,53.0,45.9,53.2,46.8,36.8,93,80,63,30.45,30.34,5,1,8,0.00
2013-12-14,66.8,55.3,45.3,55.2,43.6,24.5,93,69,25,30.49,30.37,4,0,9,0.00
2013-12-15,67.8,58.1,49.5,54.4,36.6,25.4,72,46,25,30.43,30.27,3,0,8,0.00
2013-12-16,75.7,63.9,54.5,55.4,40.4,26.6,80,45,17,30.32,30.23,3,0,8,0.00
2013-12-17,70.1,61.8,55.7,56.9,48.1,34.8,87,62,39,30.32,30.20,5,0,7,0.00
2013-12-18,64.5,59.4,56.1,58.8,53.1,42.0,90,80,50,30.21,30.07,8,2,12,0.00
2013-12-19,57.9,53.8,47.8,51.4,48.8,45.1,92,83,73,30.09,29.93,9,4,15,0.00
2013-12-20,59.7,52.6,45.9,52.9,48.3,43.7,93,86,73,30.16,29.97,5,1,10,0.00
2013-12-21,59.7,53.7,48.7,51.8,48.4,45.2,90,82,73,30.29,30.13,5,1,11,0.00
2013-12-22,61.6,54.0,46.9,55.5,50.1,44.3,94,87,72,30.44,30.28,5,1,9,0.00
2013-12-23,66.5,57.0,49.6,57.0,47.4,39.9,89,71,50,30.50,30.37,5,0,8,0.00
2013-12-24,69.6,58.7,50.3,51.5,43.6,37.8,74,58,35,30.40,30.27,4,0,6,0.00
2013-12-25,69.3,61.6,53.3,54.6,39.8,23.7,70,46,23,30.37,30.28,5,0,9,0.00
2013-12-26,68.5,60.5,53.1,52.3,34.1,18.2,73,39,21,30.34,30.26,5,0,10,0.00
2013-12-27,68.8,59.8,51.6,55.1,35.1,18.6,74,42,21,30.34,30.23,3,0,6,0.00
2013-12-28,65.0,57.5,51.2,57.5,47.5,28.1,94,71,33,30.26,30.14,7,1,13,0.00
2013-12-29,62.4,54.0,46.4,57.5,45.7,25.9,95,75,34,30.34,30.19,5,1,8,0.00
2013-12-30,66.8,57.1,48.9,51.2,35.4,21.6,70,45,21,30.45,30.34,3,0,6,0.00
2013-12-31,61.1,54.2,47.7,55.5,43.2,25.8,96,69,40,30.41,30.29,4,1,7,0.00
2014-1-1,62.5,53.7,44.0,56.3,50.4,42.5,96,89,72,30.34,30.22,5,1,9,0.00
2014-1-2,66.3,55.3,45.6,57.0,50.2,39.4,97,84,48,30.30,30.19,4,1,8,0.00